STARLINK-3093, 49141

Orbit data source: Space-Track

STARLINK-3093, 49141 is a payload satellite owned by SpaceX/Seattle (US) in LEO that was launched on Tue, 14 Sep 2021 UTC via an FALCON 9 launch vehicle from the Air Force Western Test Range (AFWTR). Payload-class satellites include a variety of spacecraft equipped with specific instruments for various scientific and technological missions. These include communications satellites like Starlink; space stations such as the ISS; scientific satellites like the Hubble; Earth observation satellites from companies like Planet Labs, Umbra, and HawkEye 360; GPS; miniature CubeSats for education and research; and military/defense satellites.

Loading next visibility...
Identifier
49141, 2021-082M
Orbit
LEO
Country
Flag of USUS
Related business
Manufacturer
SpaceX/Seattle
Mission
Operational Commercial Communications
Bus & Motor
STARLINK, Unknown motor
Mass
297 kg wet, ~275 kg dry
Launch date (UTC)
2021-09-14 (4 years ago)
Launch vehicle
FALCON 9
Launch site
Air Force Western Test Range (AFWTR)
Object type
Payload
Rocket body
Debris
Shape & HBR
Box + 1 Pan, 10.1 m
Radar Cross Section
13.562 m², Large (>1 m²)

Expand to show TLE details & history
Last TLE update: 10 hours ago

TLE from 10 hours ago
0 STARLINK-3093
1 49141U 21082M   26071.98102929 -.00000105  00000-0 -97754-6 0  9994
2 49141  69.9977 286.1671 0002803 271.5996  88.4842 14.98330993247670
Epoch: 2026-03-12T23:32Z
TLE epoch observation values (Epoch: 2026-03-12T23:32:40.930Z)
Latitude
-0.00003°
Longitude
122.37342°
Altitude
574.426 km
Speed
7.574 km/s
True Right ascension
19h 04m 40s
True Declination
0° 00' 00"
Sunlit
Object was in daylight at epoch
Visualization orbit readout
Latitude
Unknown
Longitude
Unknown
Altitude
Unknown
Speed
Unknown
Apparent Right ascension
Unknown
Apparent Declination
Unknown
Sunlit
N/A
Visualization observer readout
Local Sidereal Time
13:29:53
Azimuth
Unknown
Elevation
Unknown
Doppler factor
Unknown
Orbital elements
Apogee altitude
571.949 km
Perigee altitude
568.054 km
Semi-major axis
6,948.138 km
Eccentricity
0.00028
Inclination
69.9977°
RAAN
286.1671°
Arg. of periapsis
271.5996°
True anomaly
88.51631°
Mean anomaly
88.4842°
Eccentric anomaly
88.50025°
Mean motion
3.74749 °/min
Orbital period
96.06 mins
BSTAR
-9.7754e-7
Loading maneuver chart data...
Computing Atmospheric mass density...
Loading historical data...
Loading historical data...
Loading historical data...
Loading historical data...
Loading historical data...
Loading historical data...
Loading historical data...

Documentation

Showing up to 5 results
|